Time,TemperatureF,DewpointF,PressureIn,WindDirection,WindDirectionDegrees,WindSpeedMPH,WindSpeedGustMPH,Humidity,HourlyPrecipIn,Conditions,Clouds,dailyrainin,SoftwareType,DateUTC
2013-05-06 00:00:00,55.6,43.2,30.15,ESE,113,0.0,0.0,63,0.00,,,0.00,WUHU216HW,2013-05-06 04:00:00,
2013-05-06 00:01:00,55.6,43.2,30.15,ESE,113,0.0,0.0,63,0.00,,,0.00,WUHU216HW,2013-05-06 04:01:00,
2013-05-06 00:06:00,55.8,42.9,30.15,East,90,0.0,0.0,62,0.00,,,0.00,WUHU216HW,2013-05-06 04:06:00,
2013-05-06 00:11:00,55.8,43.4,30.15,East,90,0.0,0.0,63,0.00,,,0.00,WUHU216HW,2013-05-06 04:11:00,
2013-05-06 00:16:00,55.8,43.4,30.15,East,90,0.0,0.0,63,0.00,,,0.00,WUHU216HW,2013-05-06 04:16:00,
2013-05-06 00:21:00,55.6,42.8,30.15,East,90,0.0,0.0,62,0.00,,,0.00,WUHU216HW,2013-05-06 04:21:00,
2013-05-06 00:26:00,55.4,43.0,30.16,East,90,0.0,0.0,63,0.00,,,0.00,WUHU216HW,2013-05-06 04:26:00,
2013-05-06 00:31:00,55.1,43.1,30.16,East,90,0.0,0.0,64,0.00,,,0.00,WUHU216HW,2013-05-06 04:31:00,
2013-05-06 00:36:00,55.1,43.1,30.15,East,90,0.0,0.0,64,0.00,,,0.00,WUHU216HW,2013-05-06 04:36:00,
2013-05-06 00:41:00,55.1,43.1,30.15,East,90,0.0,0.0,64,0.00,,,0.00,WUHU216HW,2013-05-06 04:41:00,
2013-05-06 00:46:00,54.9,42.9,30.15,ESE,113,0.0,0.0,64,0.00,,,0.00,WUHU216HW,2013-05-06 04:46:00,
2013-05-06 00:51:00,54.9,42.5,30.16,ESE,113,0.0,0.0,63,0.00,,,0.00,WUHU216HW,2013-05-06 04:51:00,
2013-05-06 00:56:00,54.7,42.8,30.16,East,90,0.0,0.0,64,0.00,,,0.00,WUHU216HW,2013-05-06 04:56:00,
2013-05-06 01:01:00,54.7,42.8,30.16,East,90,0.0,0.0,64,0.00,,,0.00,WUHU216HW,2013-05-06 05:01:00,
2013-05-06 01:06:00,54.7,42.8,30.16,East,90,0.0,0.0,64,0.00,,,0.00,WUHU216HW,2013-05-06 05:06:00,
2013-05-06 01:11:00,54.5,42.6,30.16,East,90,0.0,0.0,64,0.00,,,0.00,WUHU216HW,2013-05-06 05:11:00,
2013-05-06 01:16:00,54.2,42.2,30.16,East,90,0.0,0.0,64,0.00,,,0.00,WUHU216HW,2013-05-06 05:16:00,
2013-05-06 01:21:00,53.8,41.9,30.15,East,90,0.0,0.0,64,0.00,,,0.00,WUHU216HW,2013-05-06 05:21:00,
2013-05-06 01:26:00,53.5,41.6,30.15,East,90,0.0,0.0,64,0.00,,,0.00,WUHU216HW,2013-05-06 05:26:00,
2013-05-06 01:31:00,53.3,41.4,30.15,East,90,0.0,0.0,64,0.00,,,0.00,WUHU216HW,2013-05-06 05:31:00,
2013-05-06 01:36:00,53.1,41.2,30.15,East,90,0.0,0.0,64,0.00,,,0.00,WUHU216HW,2013-05-06 05:36:00,
2013-05-06 01:41:00,52.9,41.4,30.15,East,90,0.0,0.0,65,0.00,,,0.00,WUHU216HW,2013-05-06 05:41:00,
2013-05-06 01:46:00,52.9,41.4,30.15,East,90,0.0,0.0,65,0.00,,,0.00,WUHU216HW,2013-05-06 05:46:00,
2013-05-06 01:51:00,53.1,41.6,30.15,ESE,113,0.0,0.0,65,0.00,,,0.00,WUHU216HW,2013-05-06 05:51:00,
2013-05-06 01:56:00,52.9,41.4,30.15,ESE,113,0.0,0.0,65,0.00,,,0.00,WUHU216HW,2013-05-06 05:56:00,
2013-05-06 02:01:00,52.7,41.7,30.15,ESE,113,0.0,0.0,66,0.00,,,0.00,WUHU216HW,2013-05-06 06:01:00,
2013-05-06 02:06:00,52.6,41.5,30.15,ESE,113,0.0,0.0,66,0.00,,,0.00,WUHU216HW,2013-05-06 06:06:00,
2013-05-06 02:11:00,52.6,41.5,30.15,ESE,113,0.0,0.0,66,0.00,,,0.00,WUHU216HW,2013-05-06 06:11:00,
2013-05-06 02:16:00,52.4,41.0,30.15,ESE,113,0.0,0.0,65,0.00,,,0.00,WUHU216HW,2013-05-06 06:16:00,
2013-05-06 02:21:00,52.2,41.1,30.15,ESE,113,0.0,0.0,66,0.00,,,0.00,WUHU216HW,2013-05-06 06:21:00,
2013-05-06 02:26:00,52.2,41.1,30.15,ESE,113,0.0,0.0,66,0.00,,,0.00,WUHU216HW,2013-05-06 06:26:00,
2013-05-06 02:31:00,52.2,41.1,30.15,ESE,113,0.0,0.0,66,0.00,,,0.00,WUHU216HW,2013-05-06 06:31:00,
2013-05-06 02:36:00,52.2,41.1,30.15,ESE,113,0.0,0.0,66,0.00,,,0.00,WUHU216HW,2013-05-06 06:36:00,
2013-05-06 02:41:00,52.0,41.4,30.15,ESE,113,0.0,0.0,67,0.00,,,0.00,WUHU216HW,2013-05-06 06:41:00,
2013-05-06 02:46:00,52.0,41.0,30.15,ESE,113,0.0,0.0,66,0.00,,,0.00,WUHU216HW,2013-05-06 06:46:00,
2013-05-06 02:51:00,51.8,40.4,30.15,ESE,113,0.0,0.0,65,0.00,,,0.00,WUHU216HW,2013-05-06 06:51:00,
2013-05-06 02:56:00,51.8,40.4,30.15,ESE,113,0.0,0.0,65,0.00,,,0.00,WUHU216HW,2013-05-06 06:56:00,
2013-05-06 03:01:00,51.7,40.7,30.15,ESE,113,0.0,0.0,66,0.00,,,0.00,WUHU216HW,2013-05-06 07:01:00,
2013-05-06 03:06:00,51.5,40.5,30.15,ENE,68,0.0,0.0,66,0.00,,,0.00,WUHU216HW,2013-05-06 07:06:00,
2013-05-06 03:11:00,51.3,40.3,30.15,ENE,68,0.0,0.0,66,0.00,,,0.00,WUHU216HW,2013-05-06 07:11:00,
2013-05-06 03:16:00,51.1,40.2,30.15,ENE,68,0.0,0.0,66,0.00,,,0.00,WUHU216HW,2013-05-06 07:16:00,
2013-05-06 03:21:00,50.9,40.0,30.16,North,0,0.0,0.0,66,0.00,,,0.00,WUHU216HW,2013-05-06 07:21:00,
2013-05-06 03:26:00,50.8,39.8,30.16,North,0,0.0,0.0,66,0.00,,,0.00,WUHU216HW,2013-05-06 07:26:00,
2013-05-06 03:31:00,50.8,39.8,30.16,North,0,0.0,0.0,66,0.00,,,0.00,WUHU216HW,2013-05-06 07:31:00,
2013-05-06 03:36:00,50.6,39.6,30.16,North,0,0.0,0.0,66,0.00,,,0.00,WUHU216HW,2013-05-06 07:36:00,
2013-05-06 03:41:00,50.4,39.1,30.16,North,0,0.0,0.0,65,0.00,,,0.00,WUHU216HW,2013-05-06 07:41:00,
2013-05-06 03:46:00,50.2,38.9,30.16,North,0,0.0,0.0,65,0.00,,,0.00,WUHU216HW,2013-05-06 07:46:00,
2013-05-06 03:51:00,50.0,38.7,30.16,North,0,0.0,0.0,65,0.00,,,0.00,WUHU216HW,2013-05-06 07:51:00,
2013-05-06 03:56:00,50.0,39.1,30.16,North,0,0.0,0.0,66,0.00,,,0.00,WUHU216HW,2013-05-06 07:56:00,
2013-05-06 04:01:00,49.7,38.8,30.16,North,0,0.0,0.0,66,0.00,,,0.00,WUHU216HW,2013-05-06 08:01:00,
2013-05-06 04:06:00,49.5,38.6,30.16,North,0,0.0,0.0,66,0.00,,,0.00,WUHU216HW,2013-05-06 08:06:00,
2013-05-06 04:11:00,49.3,38.4,30.16,North,0,0.0,0.0,66,0.00,,,0.00,WUHU216HW,2013-05-06 08:11:00,
2013-05-06 04:16:00,49.3,38.4,30.16,North,0,0.0,0.0,66,0.00,,,0.00,WUHU216HW,2013-05-06 08:16:00,
2013-05-06 04:21:00,49.3,38.4,30.16,North,0,0.0,0.0,66,0.00,,,0.00,WUHU216HW,2013-05-06 08:21:00,
2013-05-06 04:26:00,49.1,37.8,30.16,North,0,0.0,0.0,65,0.00,,,0.00,WUHU216HW,2013-05-06 08:26:00,
2013-05-06 04:31:00,49.1,37.8,30.16,North,0,0.0,0.0,65,0.00,,,0.00,WUHU216HW,2013-05-06 08:31:00,
2013-05-06 04:36:00,49.1,37.8,30.16,North,0,0.0,0.0,65,0.00,,,0.00,WUHU216HW,2013-05-06 08:36:00,
2013-05-06 04:41:00,49.0,37.7,30.16,North,0,0.0,0.0,65,0.00,,,0.00,WUHU216HW,2013-05-06 08:41:00,
2013-05-06 04:46:00,49.0,37.7,30.16,North,0,0.0,0.0,65,0.00,,,0.00,WUHU216HW,2013-05-06 08:46:00,
2013-05-06 04:51:00,48.8,38.3,30.16,North,0,0.0,0.0,67,0.00,,,0.00,WUHU216HW,2013-05-06 08:51:00,
2013-05-06 04:56:00,48.6,38.1,30.16,North,0,0.0,0.0,67,0.00,,,0.00,WUHU216HW,2013-05-06 08:56:00,
2013-05-06 05:01:00,48.2,37.4,30.16,North,0,0.0,0.0,66,0.00,,,0.00,WUHU216HW,2013-05-06 09:01:00,
2013-05-06 05:06:00,48.2,37.4,30.16,North,0,0.0,0.0,66,0.00,,,0.00,WUHU216HW,2013-05-06 09:06:00,
2013-05-06 05:11:00,48.1,37.2,30.16,North,0,0.0,0.0,66,0.00,,,0.00,WUHU216HW,2013-05-06 09:11:00,
2013-05-06 05:16:00,47.9,37.5,30.16,North,0,0.0,0.0,67,0.00,,,0.00,WUHU216HW,2013-05-06 09:16:00,
2013-05-06 05:21:00,47.7,37.3,30.16,North,0,0.0,0.0,67,0.00,,,0.00,WUHU216HW,2013-05-06 09:21:00,
2013-05-06 05:26:00,47.3,36.9,30.17,North,0,0.0,0.0,67,0.00,,,0.00,WUHU216HW,2013-05-06 09:26:00,
2013-05-06 05:31:00,47.3,36.9,30.17,North,0,0.0,0.0,67,0.00,,,0.00,WUHU216HW,2013-05-06 09:31:00,
2013-05-06 05:36:00,47.2,36.7,30.17,North,0,0.0,0.0,67,0.00,,,0.00,WUHU216HW,2013-05-06 09:36:00,
2013-05-06 05:41:00,47.0,37.0,30.17,North,0,0.0,0.0,68,0.00,,,0.00,WUHU216HW,2013-05-06 09:41:00,
2013-05-06 05:46:00,46.8,36.8,30.17,North,0,0.0,0.0,68,0.00,,,0.00,WUHU216HW,2013-05-06 09:46:00,
2013-05-06 05:51:00,46.6,37.0,30.17,North,0,0.0,0.0,69,0.00,,,0.00,WUHU216HW,2013-05-06 09:51:00,
2013-05-06 05:56:00,46.4,36.5,30.17,North,0,0.0,0.0,68,0.00,,,0.00,WUHU216HW,2013-05-06 09:56:00,
2013-05-06 06:01:00,46.4,36.5,30.17,North,0,0.0,0.0,68,0.00,,,0.00,WUHU216HW,2013-05-06 10:01:00,
2013-05-06 06:06:00,46.4,36.5,30.17,North,0,0.0,0.0,68,0.00,,,0.00,WUHU216HW,2013-05-06 10:06:00,
2013-05-06 06:11:00,46.3,36.7,30.17,North,0,0.0,0.0,69,0.00,,,0.00,WUHU216HW,2013-05-06 10:11:00,
2013-05-06 06:16:00,46.1,36.6,30.17,North,0,0.0,0.0,69,0.00,,,0.00,WUHU216HW,2013-05-06 10:16:00,
2013-05-06 06:21:00,46.1,36.6,30.18,North,0,0.0,0.0,69,0.00,,,0.00,WUHU216HW,2013-05-06 10:21:00,
2013-05-06 06:26:00,46.1,36.6,30.17,North,0,0.0,0.0,69,0.00,,,0.00,WUHU216HW,2013-05-06 10:26:00,
2013-05-06 06:31:00,46.1,36.9,30.18,North,0,0.0,0.0,70,0.00,,,0.00,WUHU216HW,2013-05-06 10:31:00,
2013-05-06 06:36:00,46.1,36.9,30.18,North,0,0.0,0.0,70,0.00,,,0.00,WUHU216HW,2013-05-06 10:36:00,
2013-05-06 07:00:00,48.2,39.6,30.19,North,0,0.0,0.0,72,0.00,,,0.00,WUHU216HW,2013-05-06 11:00:00,
2013-05-06 07:05:00,48.2,39.6,30.19,North,0,0.0,0.0,72,0.00,,,0.00,WUHU216HW,2013-05-06 11:05:00,
2013-05-06 08:00:00,58.7,42.0,30.20,SW,225,0.0,0.0,54,0.00,,,0.00,WUHU216HW,2013-05-06 12:00:00,
2013-05-06 08:05:00,58.7,42.0,30.20,SW,225,0.0,0.0,54,0.00,,,0.00,WUHU216HW,2013-05-06 12:05:00,
2013-05-06 09:00:00,62.6,42.6,30.21,WSW,248,0.0,0.0,48,0.00,,,0.00,WUHU216HW,2013-05-06 13:00:00,
2013-05-06 09:05:00,62.6,42.6,30.21,WSW,248,0.0,0.0,48,0.00,,,0.00,WUHU216HW,2013-05-06 13:05:00,
2013-05-06 10:00:00,66.2,41.2,30.21,SSW,203,0.0,0.0,40,0.00,,,0.00,WUHU216HW,2013-05-06 14:00:00,
2013-05-06 10:05:00,66.2,41.2,30.21,SSW,203,0.0,0.0,40,0.00,,,0.00,WUHU216HW,2013-05-06 14:05:00,
2013-05-06 11:00:00,68.9,41.4,30.20,East,90,0.0,0.0,37,0.00,,,0.00,WUHU216HW,2013-05-06 15:00:00,
2013-05-06 11:05:00,68.9,41.4,30.20,East,90,0.0,0.0,37,0.00,,,0.00,WUHU216HW,2013-05-06 15:05:00,
2013-05-06 12:00:00,71.5,38.5,30.19,East,90,0.0,0.0,30,0.00,,,0.00,WUHU216HW,2013-05-06 16:00:00,
2013-05-06 12:05:00,71.5,38.5,30.19,East,90,0.0,0.0,30,0.00,,,0.00,WUHU216HW,2013-05-06 16:05:00,
2013-05-06 13:00:00,72.7,38.5,30.16,NE,45,0.0,0.0,29,0.00,,,0.00,WUHU216HW,2013-05-06 17:00:00,
2013-05-06 13:05:00,72.4,38.3,30.16,ENE,68,0.0,0.0,29,0.00,,,0.00,WUHU216HW,2013-05-06 17:05:00,
2013-05-06 13:10:00,72.5,34.4,30.16,ESE,113,0.0,0.0,25,0.00,,,0.00,WUHU216HW,2013-05-06 17:10:00,
2013-05-06 13:15:00,72.7,39.6,30.16,SE,135,0.0,0.0,30,0.00,,,0.00,WUHU216HW,2013-05-06 17:15:00,
2013-05-06 13:20:00,73.3,38.0,30.16,East,90,0.0,0.0,28,0.00,,,0.00,WUHU216HW,2013-05-06 17:20:00,
2013-05-06 13:25:00,73.6,34.2,30.15,SE,135,0.0,0.0,24,0.00,,,0.00,WUHU216HW,2013-05-06 17:25:00,
2013-05-06 13:30:00,74.0,39.6,30.16,SE,135,0.0,0.0,29,0.00,,,0.00,WUHU216HW,2013-05-06 17:30:00,
2013-05-06 13:35:00,74.9,39.4,30.15,ESE,113,0.0,0.0,28,0.00,,,0.00,WUHU216HW,2013-05-06 17:35:00,
2013-05-06 13:40:00,75.1,34.5,30.15,SE,135,0.0,0.0,23,0.00,,,0.00,WUHU216HW,2013-05-06 17:40:00,
2013-05-06 13:45:00,74.5,37.1,30.15,ENE,68,0.0,0.0,26,0.00,,,0.00,WUHU216HW,2013-05-06 17:45:00,
2013-05-06 13:50:00,74.3,36.9,30.15,East,90,0.0,0.0,26,0.00,,,0.00,WUHU216HW,2013-05-06 17:50:00,
2013-05-06 13:55:00,74.5,41.9,30.15,NE,45,0.0,0.0,31,0.00,,,0.00,WUHU216HW,2013-05-06 17:55:00,
2013-05-06 14:00:00,74.2,43.8,30.15,South,180,0.0,0.0,34,0.00,,,0.00,WUHU216HW,2013-05-06 18:00:00,
2013-05-06 14:05:00,74.2,43.8,30.14,NNE,23,0.0,0.0,34,0.00,,,0.00,WUHU216HW,2013-05-06 18:05:00,
2013-05-06 14:10:00,73.8,47.3,30.14,ENE,68,0.0,0.0,39,0.00,,,0.00,WUHU216HW,2013-05-06 18:10:00,
2013-05-06 14:15:00,73.6,41.0,30.14,NE,45,0.0,0.0,31,0.00,,,0.00,WUHU216HW,2013-05-06 18:15:00,
2013-05-06 14:20:00,73.4,43.9,30.14,West,270,0.0,0.0,35,0.00,,,0.00,WUHU216HW,2013-05-06 18:20:00,
2013-05-06 14:25:00,73.1,45.9,30.14,NNE,23,0.0,0.0,38,0.00,,,0.00,WUHU216HW,2013-05-06 18:25:00,
2013-05-06 14:30:00,73.1,43.7,30.14,NNE,23,0.0,0.0,35,0.00,,,0.00,WUHU216HW,2013-05-06 18:30:00,
2013-05-06 14:35:00,73.3,43.0,30.14,NNE,23,0.0,0.0,34,0.00,,,0.00,WUHU216HW,2013-05-06 18:35:00,
2013-05-06 14:40:00,73.1,42.8,30.14,North,0,0.0,0.0,34,0.00,,,0.00,WUHU216HW,2013-05-06 18:40:00,
2013-05-06 14:45:00,73.3,43.7,30.14,NNE,23,0.0,0.0,35,0.00,,,0.00,WUHU216HW,2013-05-06 18:45:00,
2013-05-06 14:50:00,73.3,43.7,30.14,NE,45,0.0,0.0,35,0.00,,,0.00,WUHU216HW,2013-05-06 18:50:00,
2013-05-06 14:55:00,73.3,45.3,30.13,NW,315,0.0,0.0,37,0.00,,,0.00,WUHU216HW,2013-05-06 18:55:00,
2013-05-06 15:00:00,73.1,43.7,30.13,NNE,23,0.0,0.0,35,0.00,,,0.00,WUHU216HW,2013-05-06 19:00:00,
2013-05-06 15:05:00,72.9,42.8,30.13,North,0,0.0,0.0,34,0.00,,,0.00,WUHU216HW,2013-05-06 19:05:00,
2013-05-06 15:10:00,72.9,43.5,30.13,NNE,23,0.0,0.0,35,0.00,,,0.00,WUHU216HW,2013-05-06 19:10:00,
2013-05-06 15:15:00,72.9,42.8,30.13,NNE,23,0.0,0.0,34,0.00,,,0.00,WUHU216HW,2013-05-06 19:15:00,
2013-05-06 15:20:00,72.9,41.9,30.12,NNE,23,0.0,0.0,33,0.00,,,0.00,WUHU216HW,2013-05-06 19:20:00,
2013-05-06 15:25:00,73.1,42.8,30.12,NNE,23,0.0,0.0,34,0.00,,,0.00,WUHU216HW,2013-05-06 19:25:00,
2013-05-06 15:30:00,73.3,43.0,30.12,NNE,23,0.0,0.0,34,0.00,,,0.00,WUHU216HW,2013-05-06 19:30:00,
2013-05-06 15:35:00,73.3,41.5,30.12,ENE,68,0.0,0.0,32,0.00,,,0.00,WUHU216HW,2013-05-06 19:35:00,
2013-05-06 15:40:00,72.9,41.2,30.12,NNW,338,0.0,0.0,32,0.00,,,0.00,WUHU216HW,2013-05-06 19:40:00,
2013-05-06 15:45:00,72.5,42.4,30.12,North,0,0.0,0.0,34,0.00,,,0.00,WUHU216HW,2013-05-06 19:45:00,
2013-05-06 15:50:00,73.1,40.6,30.12,NNE,23,0.0,0.0,31,0.00,,,0.00,WUHU216HW,2013-05-06 19:50:00,
2013-05-06 15:55:00,73.1,41.4,30.11,NNE,23,0.0,0.0,32,0.00,,,0.00,WUHU216HW,2013-05-06 19:55:00,
2013-05-06 16:00:00,73.3,42.3,30.11,NE,45,0.0,0.0,33,0.00,,,0.00,WUHU216HW,2013-05-06 20:00:00,
2013-05-06 16:05:00,73.1,40.6,30.11,North,0,0.0,0.0,31,0.00,,,0.00,WUHU216HW,2013-05-06 20:05:00,
2013-05-06 16:10:00,73.1,39.9,30.11,NNE,23,0.0,0.0,30,0.00,,,0.00,WUHU216HW,2013-05-06 20:10:00,
2013-05-06 16:15:00,72.7,40.3,30.11,NE,45,0.0,0.0,31,0.00,,,0.00,WUHU216HW,2013-05-06 20:15:00,
2013-05-06 16:20:00,72.7,39.6,30.11,NNE,23,0.0,0.0,30,0.00,,,0.00,WUHU216HW,2013-05-06 20:20:00,
2013-05-06 16:25:00,72.7,39.6,30.11,NNE,23,0.0,0.0,30,0.00,,,0.00,WUHU216HW,2013-05-06 20:25:00,
2013-05-06 16:30:00,72.7,39.6,30.10,ENE,68,0.0,0.0,30,0.00,,,0.00,WUHU216HW,2013-05-06 20:30:00,
2013-05-06 16:35:00,72.7,41.0,30.10,NE,45,0.0,0.0,32,0.00,,,0.00,WUHU216HW,2013-05-06 20:35:00,
2013-05-06 16:40:00,72.9,41.2,30.10,North,0,0.0,0.0,32,0.00,,,0.00,WUHU216HW,2013-05-06 20:40:00,
2013-05-06 16:45:00,72.9,37.7,30.10,NNE,23,0.0,0.0,28,0.00,,,0.00,WUHU216HW,2013-05-06 20:45:00,
2013-05-06 16:50:00,72.4,37.3,30.10,NW,315,0.0,0.0,28,0.00,,,0.00,WUHU216HW,2013-05-06 20:50:00,
2013-05-06 16:55:00,72.0,39.0,30.10,NE,45,0.0,0.0,30,0.00,,,0.00,WUHU216HW,2013-05-06 20:55:00,
2013-05-06 17:00:00,72.0,39.7,30.10,NNE,23,0.0,0.0,31,0.00,,,0.00,WUHU216HW,2013-05-06 21:00:00,
2013-05-06 17:05:00,72.4,39.2,30.10,NNE,23,0.0,0.0,30,0.00,,,0.00,WUHU216HW,2013-05-06 21:05:00,
2013-05-06 17:10:00,72.4,42.3,30.10,North,0,0.0,0.0,34,0.00,,,0.00,WUHU216HW,2013-05-06 21:10:00,
2013-05-06 17:15:00,72.4,38.3,30.09,NNE,23,0.0,0.0,29,0.00,,,0.00,WUHU216HW,2013-05-06 21:15:00,
2013-05-06 17:20:00,72.0,39.0,30.09,North,0,0.0,0.0,30,0.00,,,0.00,WUHU216HW,2013-05-06 21:20:00,
2013-05-06 17:25:00,72.0,39.0,30.09,North,0,0.0,0.0,30,0.00,,,0.00,WUHU216HW,2013-05-06 21:25:00,
2013-05-06 17:30:00,71.6,37.7,30.09,NNE,23,0.0,0.0,29,0.00,,,0.00,WUHU216HW,2013-05-06 21:30:00,
2013-05-06 17:35:00,71.6,37.7,30.09,NNE,23,0.0,0.0,29,0.00,,,0.00,WUHU216HW,2013-05-06 21:35:00,
2013-05-06 17:40:00,71.3,36.4,30.09,NE,45,0.0,0.0,28,0.00,,,0.00,WUHU216HW,2013-05-06 21:40:00,
2013-05-06 17:45:00,71.3,36.4,30.09,ESE,113,0.0,0.0,28,0.00,,,0.00,WUHU216HW,2013-05-06 21:45:00,
2013-05-06 17:50:00,71.1,36.2,30.09,NE,45,0.0,0.0,28,0.00,,,0.00,WUHU216HW,2013-05-06 21:50:00,
2013-05-06 17:55:00,71.3,39.2,30.09,NNE,23,0.0,0.0,31,0.00,,,0.00,WUHU216HW,2013-05-06 21:55:00,
2013-05-06 18:00:00,71.5,40.1,30.09,NE,45,0.0,0.0,32,0.00,,,0.00,WUHU216HW,2013-05-06 22:00:00,
2013-05-06 18:05:00,70.9,36.0,30.09,NNE,23,0.0,0.0,28,0.00,,,0.00,WUHU216HW,2013-05-06 22:05:00,
2013-05-06 18:10:00,70.9,36.0,30.09,ENE,68,0.0,0.0,28,0.00,,,0.00,WUHU216HW,2013-05-06 22:10:00,
2013-05-06 18:15:00,70.7,34.8,30.09,ENE,68,0.0,0.0,27,0.00,,,0.00,WUHU216HW,2013-05-06 22:15:00,
2013-05-06 18:20:00,70.4,33.5,30.09,ENE,68,0.0,0.0,26,0.00,,,0.00,WUHU216HW,2013-05-06 22:20:00,
2013-05-06 18:25:00,70.2,35.4,30.09,ENE,68,0.0,0.0,28,0.00,,,0.00,WUHU216HW,2013-05-06 22:25:00,
2013-05-06 18:30:00,70.0,37.3,30.09,NNE,23,0.0,0.0,30,0.00,,,0.00,WUHU216HW,2013-05-06 22:30:00,
2013-05-06 18:35:00,69.7,36.9,30.09,NE,45,0.0,0.0,30,0.00,,,0.00,WUHU216HW,2013-05-06 22:35:00,
2013-05-06 18:40:00,69.5,36.7,30.09,NNE,23,0.0,0.0,30,0.00,,,0.00,WUHU216HW,2013-05-06 22:40:00,
2013-05-06 18:45:00,69.8,36.1,30.09,NNE,23,0.0,0.0,29,0.00,,,0.00,WUHU216HW,2013-05-06 22:45:00,
2013-05-06 18:50:00,70.7,36.9,30.09,NE,45,0.0,0.0,29,0.00,,,0.00,WUHU216HW,2013-05-06 22:50:00,
2013-05-06 18:55:00,71.3,37.4,30.09,NNE,23,0.0,0.0,29,0.00,,,0.00,WUHU216HW,2013-05-06 22:55:00,
2013-05-06 19:00:00,71.8,38.9,30.09,NE,45,0.0,0.0,30,0.00,,,0.00,WUHU216HW,2013-05-06 23:00:00,
2013-05-06 19:05:00,71.6,37.7,30.09,ENE,68,0.0,0.0,29,0.00,,,0.00,WUHU216HW,2013-05-06 23:05:00,
2013-05-06 19:10:00,70.6,37.7,30.09,ENE,68,0.0,0.0,30,0.00,,,0.00,WUHU216HW,2013-05-06 23:10:00,
2013-05-06 19:15:00,69.5,39.7,30.09,ENE,68,0.0,0.0,34,0.00,,,0.00,WUHU216HW,2013-05-06 23:15:00,
2013-05-06 19:20:00,68.6,39.6,30.09,NNE,23,0.0,0.0,35,0.00,,,0.00,WUHU216HW,2013-05-06 23:20:00,
2013-05-06 19:25:00,67.9,39.7,30.09,NNE,23,0.0,0.0,36,0.00,,,0.00,WUHU216HW,2013-05-06 23:25:00,
2013-05-06 19:30:00,67.3,40.0,30.09,NNE,23,0.0,0.0,37,0.00,,,0.00,WUHU216HW,2013-05-06 23:30:00,
2013-05-06 19:35:00,67.0,39.0,30.09,NNE,23,0.0,0.0,36,0.00,,,0.00,WUHU216HW,2013-05-06 23:35:00,
2013-05-06 19:40:00,66.6,40.2,30.09,NNE,23,0.0,0.0,38,0.00,,,0.00,WUHU216HW,2013-05-06 23:40:00,
2013-05-06 19:45:00,66.1,40.3,30.09,NNE,23,0.0,0.0,39,0.00,,,0.00,WUHU216HW,2013-05-06 23:45:00,
2013-05-06 19:50:00,65.7,40.1,30.09,NNE,23,0.0,0.0,39,0.00,,,0.00,WUHU216HW,2013-05-06 23:50:00,
2013-05-06 19:55:00,65.3,39.7,30.09,NNE,23,0.0,0.0,39,0.00,,,0.00,WUHU216HW,2013-05-06 23:55:00,
2013-05-06 20:00:00,65.2,39.5,30.09,NNE,23,0.0,0.0,39,0.00,,,0.00,WUHU216HW,2013-05-07 00:00:00,
2013-05-06 20:05:00,65.0,39.3,30.10,NNE,23,0.0,0.0,39,0.00,,,0.00,WUHU216HW,2013-05-07 00:05:00,
2013-05-06 20:10:00,64.6,39.1,30.10,NNE,23,0.0,0.0,39,0.00,,,0.00,WUHU216HW,2013-05-07 00:10:00,
2013-05-06 20:15:00,64.3,40.1,30.10,NNE,23,0.0,0.0,41,0.00,,,0.00,WUHU216HW,2013-05-07 00:15:00,
2013-05-06 20:20:00,63.9,39.7,30.10,NNE,23,0.0,0.0,41,0.00,,,0.00,WUHU216HW,2013-05-07 00:20:00,
2013-05-06 20:25:00,63.4,39.3,30.10,NNE,23,0.0,0.0,41,0.00,,,0.00,WUHU216HW,2013-05-07 00:25:00,
2013-05-06 20:30:00,62.8,38.7,30.10,NNE,23,0.0,0.0,41,0.00,,,0.00,WUHU216HW,2013-05-07 00:30:00,
2013-05-06 20:35:00,62.3,38.8,30.10,NNE,23,0.0,0.0,42,0.00,,,0.00,WUHU216HW,2013-05-07 00:35:00,
2013-05-06 20:40:00,61.7,39.5,30.10,NNE,23,0.0,0.0,44,0.00,,,0.00,WUHU216HW,2013-05-07 00:40:00,
2013-05-06 20:45:00,61.2,39.0,30.10,NNE,23,0.0,0.0,44,0.00,,,0.00,WUHU216HW,2013-05-07 00:45:00,
2013-05-06 20:50:00,60.8,39.2,30.10,NNE,23,0.0,0.0,45,0.00,,,0.00,WUHU216HW,2013-05-07 00:50:00,
2013-05-06 20:55:00,60.5,39.5,30.10,NNE,23,0.0,0.0,46,0.00,,,0.00,WUHU216HW,2013-05-07 00:55:00,
2013-05-06 21:00:00,60.3,39.9,30.10,NNE,23,0.0,0.0,47,0.00,,,0.00,WUHU216HW,2013-05-07 01:00:00,
2013-05-06 21:05:00,59.8,40.0,30.10,NNE,23,0.0,0.0,48,0.00,,,0.00,WUHU216HW,2013-05-07 01:05:00,
2013-05-06 21:10:00,59.4,40.2,30.10,NNE,23,0.0,0.0,49,0.00,,,0.00,WUHU216HW,2013-05-07 01:10:00,
2013-05-06 21:15:00,59.2,41.1,30.10,NNE,23,0.0,0.0,51,0.00,,,0.00,WUHU216HW,2013-05-07 01:15:00,
2013-05-06 21:20:00,59.0,41.0,30.10,NNE,23,0.0,0.0,51,0.00,,,0.00,WUHU216HW,2013-05-07 01:20:00,
2013-05-06 21:25:00,58.9,41.3,30.10,NNE,23,0.0,0.0,52,0.00,,,0.00,WUHU216HW,2013-05-07 01:25:00,
2013-05-06 21:30:00,58.9,41.3,30.10,NNE,23,0.0,0.0,52,0.00,,,0.00,WUHU216HW,2013-05-07 01:30:00,
2013-05-06 21:35:00,59.0,41.4,30.10,NNE,23,0.0,0.0,52,0.00,,,0.00,WUHU216HW,2013-05-07 01:35:00,
2013-05-06 21:40:00,58.9,41.3,30.10,NNE,23,0.0,0.0,52,0.00,,,0.00,WUHU216HW,2013-05-07 01:40:00,
2013-05-06 21:45:00,58.9,40.8,30.10,NNE,23,0.0,0.0,51,0.00,,,0.00,WUHU216HW,2013-05-07 01:45:00,
2013-05-06 21:50:00,59.0,41.0,30.10,NNE,23,0.0,0.0,51,0.00,,,0.00,WUHU216HW,2013-05-07 01:50:00,
2013-05-06 21:55:00,59.0,40.5,30.10,NNE,23,0.0,0.0,50,0.00,,,0.00,WUHU216HW,2013-05-07 01:55:00,
2013-05-06 22:00:00,58.9,40.3,30.11,NNE,23,0.0,0.0,50,0.00,,,0.00,WUHU216HW,2013-05-07 02:00:00,
2013-05-06 22:05:00,58.7,40.7,30.11,NNE,23,0.0,0.0,51,0.00,,,0.00,WUHU216HW,2013-05-07 02:05:00,
2013-05-06 22:10:00,58.3,39.9,30.11,NNE,23,0.0,0.0,50,0.00,,,0.00,WUHU216HW,2013-05-07 02:10:00,
2013-05-06 22:15:00,58.3,39.9,30.11,NNE,23,0.0,0.0,50,0.00,,,0.00,WUHU216HW,2013-05-07 02:15:00,
2013-05-06 22:20:00,58.1,39.7,30.11,NNE,23,0.0,0.0,50,0.00,,,0.00,WUHU216HW,2013-05-07 02:20:00,
2013-05-06 22:25:00,58.0,39.0,30.11,NNE,23,0.0,0.0,49,0.00,,,0.00,WUHU216HW,2013-05-07 02:25:00,
2013-05-06 22:30:00,57.8,38.8,30.12,NNE,23,0.0,0.0,49,0.00,,,0.00,WUHU216HW,2013-05-07 02:30:00,
2013-05-06 22:35:00,57.6,38.6,30.12,NNE,23,0.0,0.0,49,0.00,,,0.00,WUHU216HW,2013-05-07 02:35:00,
2013-05-06 22:40:00,57.2,38.9,30.12,NNE,23,0.0,0.0,50,0.00,,,0.00,WUHU216HW,2013-05-07 02:40:00,
2013-05-06 22:45:00,57.1,38.2,30.12,NNE,23,0.0,0.0,49,0.00,,,0.00,WUHU216HW,2013-05-07 02:45:00,
2013-05-06 22:50:00,56.7,37.8,30.12,NNE,23,0.0,0.0,49,0.00,,,0.00,WUHU216HW,2013-05-07 02:50:00,
2013-05-06 22:55:00,56.5,37.6,30.12,NNE,23,0.0,0.0,49,0.00,,,0.00,WUHU216HW,2013-05-07 02:55:00,
2013-05-06 23:00:00,56.3,38.0,30.12,NNE,23,0.0,0.0,50,0.00,,,0.00,WUHU216HW,2013-05-07 03:00:00,
2013-05-06 23:05:00,56.0,37.6,30.12,NNE,23,0.0,0.0,50,0.00,,,0.00,WUHU216HW,2013-05-07 03:05:00,
2013-05-06 23:10:00,55.8,37.4,30.12,NNE,23,0.0,0.0,50,0.00,,,0.00,WUHU216HW,2013-05-07 03:10:00,
2013-05-06 23:15:00,55.6,37.3,30.12,NNE,23,0.0,0.0,50,0.00,,,0.00,WUHU216HW,2013-05-07 03:15:00,
2013-05-06 23:20:00,55.4,37.1,30.12,NNE,23,0.0,0.0,50,0.00,,,0.00,WUHU216HW,2013-05-07 03:20:00,
2013-05-06 23:25:00,55.1,37.7,30.12,NNE,23,0.0,0.0,52,0.00,,,0.00,WUHU216HW,2013-05-07 03:25:00,
2013-05-06 23:30:00,54.9,37.5,30.12,NNE,23,0.0,0.0,52,0.00,,,0.00,WUHU216HW,2013-05-07 03:30:00,
2013-05-06 23:35:00,54.5,37.2,30.11,NNE,23,0.0,0.0,52,0.00,,,0.00,WUHU216HW,2013-05-07 03:35:00,
2013-05-06 23:40:00,54.4,37.5,30.12,NNE,23,0.0,0.0,53,0.00,,,0.00,WUHU216HW,2013-05-07 03:40:00,
2013-05-06 23:45:00,54.4,37.5,30.12,NNE,23,0.0,0.0,53,0.00,,,0.00,WUHU216HW,2013-05-07 03:45:00,
2013-05-06 23:50:00,54.4,37.5,30.12,NNE,23,0.0,0.0,53,0.00,,,0.00,WUHU216HW,2013-05-07 03:50:00,
2013-05-06 23:55:00,54.2,36.9,30.12,NNE,23,0.0,0.0,52,0.00,,,0.00,WUHU216HW,2013-05-07 03:55:00,